Retour au catalogue

SHIYAN 32-02

ActifScienceVLEO
NORAD 66378·PAYLOAD·🇨🇳 China

Lancé Nov 8, 2025 depuis Yellow Sea Launch Area

Loading…

Prochains Passages (prochaines 24 heures)

TLE

FraisSource: Space-Track

Époque: Sep 14, 2026, 22:20 UTC

1 66378U 25255C   26257.93105032  .00015144  00000-0  36005-3 0  9996
2 66378  52.9926 308.4593 0016573 135.9307 224.3021 15.41756274 47802

Suivez SHIYAN 32-02 en temps réel avec AllMySat

Download on the App Store